Temp
5 6 8 9 9 11 12 13 14 14 14 12 11 12 13 13 13 13 12 13 12 13 12 12 12 12 14 13 13 12 12 11 11 11 11 11 11 10 9 9 9 8 8 8
6 6 8 9 9 10 10 11 12 12 13 12 12 12 12 13 13 13 13 14 14 13 13 12 12 13 14 13 13 12 12 11 10 10 10 10 10 10 9 9 9 9 8 8
6 8 7 8 9 9 10 10 11 12 12 11 11 12 13 14 13 13 15 15 14 13 13 13 12 12 13 13 13 13 12 11 10 9 10 10 10 10 10 9 9 9 8 8
6 7 8 8 9 9 9 10 10 10 10 12 12 13 14 15 14 12 15 15 14 13 13 12 11 12 13 13 13 13 12 11 11 10 9 10 10 10 10 9 9 8 8 8
6 7 7 8 8 8 9 10 10 10 10 10 11 12 13 15 14 14 13 14 13 13 12 12 11 13 12 12 13 12 11 11 11 10 11 10 10 10 9 9 9 8 8 8
6 7 7 7 8 8 8 8 8 9 9 11 11 12 14 15 15 13 13 13 13 13 12 12 12 12 12 12 12 11 10 10 11 11 10 10 10 10 10 9 9 8 8 8
6 7 7 6 8 8 8 7 9 10 11 13 13 14 14 14 14 13 13 13 13 12 13 12 12 11 11 11 11 10 10 10 10 10 10 10 10 10 9 9 9 8 8 7
6 7 7 6 6 8 8 8 10 10 12 14 14 14 15 14 14 12 13 11 12 12 13 12 12 11 12 11 10 9 10 9 9 10 10 10 10 9 9 9 8 8 7 7
7 8 8 7 5 8 8 7 9 11 12 12 13 15 14 12 12 12 12 12 11 11 13 12 11 11 11 10 9 9 9 9 9 9 9 9 9 9 8 8 8 7 7 7
7 8 8 8 6 6 8 8 8 9 9 10 13 14 14 14 11 11 10 11 11 10 10 11 11 11 11 10 9 8 8 8 8 8 8 8 8 8 8 7 7 7 6 6
6 7 9 8 6 7 7 8 8 9 9 11 12 14 14 14 13 11 11 10 10 9 11 10 10 9 10 10 9 8 8 8 8 8 8 8 7 7 7 8 7 7 7 6
4 6 7 8 7 6 7 8 8 9 9 9 10 11 12 12 11 11 10 10 10 9 10 9 8 8 9 9 8 8 8 7 7 7 7 7 7 7 7 7 7 6 6 5
4 5 6 7 7 6 6 7 8 8 8 9 10 10 11 11 10 10 10 9 8 9 9 8 8 7 8 8 8 7 7 7 7 7 7 7 6 6 6 6 6 5 5 4
4 4 5 7 7 6 6 7 7 8 7 8 9 10 11 9 9 8 8 8 8 8 8 7 6 7 7 7 7 6 6 6 6 6 6 6 5 5 5 5 5 4 4 3
4 4 4 4 6 7 6 6 7 7 7 7 8 9 10 11 10 8 8 7 7 6 6 7 7 7 7 7 7 6 6 6 6 6 5 5 5 4 4 4 4 3 3 2
3 3 3 4 4 6 7 7 6 7 7 8 8 8 9 9 10 10 9 8 7 6 5 5 7 6 6 7 6 5 5 5 5 5 5 5 4 4 4 4 3 3 3 1
2 2 2 3 3 3 5 7 8 7 7 7 7 8 9 8 9 8 8 8 7 5 5 5 5 5 5 6 5 5 5 5 5 5 5 4 4 3 3 2 1 1 0 -0
2 1 2 2 2 2 3 5 7 7 7 7 7 7 7 8 8 7 7 7 6 5 5 3 4 5 4 5 5 4 4 4 4 4 4 3 3 2 1 1 0 -0 -1 -0
1 1 1 1 2 4 4 4 5 5 6 7 7 7 7 7 7 7 6 7 6 5 4 3 5 4 4 4 4 4 4 4 3 3 3 2 2 1 1 -0 -0 -0 -1 -2
1 1 1 1 2 2 5 7 7 4 5 6 6 6 6 6 5 6 6 6 5 4 4 4 4 3 3 3 3 3 3 3 2 1 2 1 0 0 -1 -1 -1 -2 -3 -3
1 1 1 1 1 4 5 6 6 5 4 6 5 5 5 5 5 6 4 4 3 4 4 4 3 2 2 3 3 2 2 1 0 -0 -2 -2 -2 -2 -1 -2 -3 -4 -3 -3
-0 -0 0 1 1 2 5 5 6 5 4 5 5 4 4 4 4 4 4 4 4 4 4 3 3 2 2 1 1 0 -0 -0 -1 -1 -1 -1 -2 -2 -3 -4 -4 -3 -3 -3
0 0 0 1 1 3 3 4 4 4 4 3 3 2 4 2 2 3 3 3 3 3 3 3 2 1 0 -0 -0 -1 -1 -1 -1 -1 -2 -3 -4 -5 -5 -4 -3 -3 -3 -3
-0 -0 0 -0 1 2 2 2 2 2 1 2 2 1 1 2 2 2 2 2 3 3 3 2 2 1 -0 -1 -1 -1 -2 -2 -2 -2 -3 -3 -4 -4 -4 -4 -4 -4 -4 -4
1 0 -1 -0 0 1 1 1 1 0 2 1 1 1 -0 1 1 2 2 2 2 2 1 1 -0 -1 -1 -1 -1 -1 -2 -3 -4 -4 -4 -4 -4 -4 -4 -4 -4 -4 -5 -6
0 -0 -1 0 1 0 1 -0 1 -1 1 1 0 0 0 0 0 0 1 1 1 1 1 -0 -1 -1 -2 -2 -2 -2 -4 -6 -5 -5 -5 -4 -4 -4 -5 -5 -5 -5 -6 -6
Height
3118 3122 3119 3125 3129 3133 3134 3133 3132 3135 3138 3137 3137 3136 3137 3138 3137 3136 3134 3134 3134 3134 3137 3139 3139 3139 3137 3138 3138 3136 3136 3130 3133 3134 3136 3138 3140 3143 3145 3146 3148 3148 3151 3152
3116 3107 3118 3124 3127 3128 3130 3130 3131 3133 3133 3132 3132 3128 3129 3131 3129 3128 3126 3126 3127 3129 3131 3133 3131 3130 3132 3132 3131 3129 3126 3124 3120 3124 3128 3130 3133 3136 3139 3141 3142 3143 3146 3147
3103 3107 3113 3117 3121 3122 3123 3124 3127 3128 3129 3127 3126 3119 3120 3120 3119 3120 3119 3119 3120 3123 3126 3126 3126 3124 3125 3125 3123 3121 3118 3115 3112 3115 3119 3120 3124 3128 3132 3135 3137 3139 3140 3143
3096 3105 3107 3109 3111 3117 3116 3121 3123 3124 3125 3120 3121 3112 3112 3113 3113 3111 3112 3112 3114 3116 3118 3119 3120 3117 3118 3118 3116 3113 3110 3108 3106 3107 3107 3112 3118 3124 3128 3131 3132 3134 3135 3137
3075 3094 3098 3101 3102 3112 3110 3118 3118 3118 3118 3117 3113 3113 3101 3105 3106 3108 3107 3106 3108 3112 3112 3113 3112 3111 3110 3110 3109 3106 3103 3101 3100 3099 3099 3106 3111 3117 3121 3124 3127 3128 3129 3131
3081 3090 3091 3091 3101 3105 3110 3113 3113 3114 3113 3102 3104 3108 3093 3098 3098 3100 3102 3102 3104 3107 3106 3106 3104 3104 3103 3103 3102 3099 3098 3096 3095 3094 3097 3102 3106 3110 3115 3117 3119 3122 3124 3126
3073 3075 3083 3088 3092 3098 3102 3106 3106 3104 3101 3080 3097 3095 3087 3089 3091 3094 3095 3098 3101 3100 3100 3098 3096 3098 3097 3096 3094 3094 3093 3094 3093 3093 3094 3098 3101 3105 3108 3111 3114 3117 3118 3120
3061 3066 3068 3075 3078 3086 3089 3096 3092 3089 3087 3077 3085 3080 3079 3085 3087 3087 3090 3091 3094 3094 3093 3093 3092 3092 3091 3089 3088 3089 3089 3090 3091 3091 3092 3094 3097 3100 3103 3106 3109 3111 3113 3115
3050 3050 3064 3068 3073 3081 3081 3084 3075 3092 3082 3078 3075 3070 3075 3078 3078 3081 3083 3084 3085 3088 3086 3088 3089 3088 3086 3084 3083 3084 3085 3086 3087 3088 3090 3091 3093 3096 3098 3101 3103 3106 3108 3110
3041 3048 3053 3058 3068 3068 3070 3076 3086 3083 3080 3077 3065 3066 3065 3071 3071 3072 3074 3076 3079 3080 3081 3082 3084 3083 3081 3079 3078 3079 3081 3081 3083 3085 3087 3088 3089 3092 3094 3096 3099 3101 3103 3104
3034 3039 3042 3051 3044 3052 3063 3066 3070 3074 3072 3062 3056 3058 3066 3066 3065 3065 3068 3070 3072 3075 3076 3077 3079 3077 3073 3075 3073 3073 3075 3077 3078 3080 3081 3084 3085 3087 3089 3091 3093 3095 3097 3099
3016 3028 3031 3031 3041 3050 3054 3057 3056 3057 3051 3060 3063 3049 3061 3060 3061 3063 3064 3066 3069 3069 3069 3071 3071 3069 3068 3066 3067 3067 3067 3070 3073 3075 3076 3078 3080 3081 3083 3085 3087 3089 3091 3091
3011 3019 3021 3027 3037 3040 3035 3035 3044 3052 3054 3054 3051 3036 3056 3053 3056 3058 3062 3062 3061 3062 3064 3064 3062 3061 3060 3058 3059 3060 3061 3063 3067 3069 3071 3073 3074 3076 3078 3080 3081 3083 3084 3084
3007 3004 3001 3002 3004 3018 3028 3030 3035 3038 3041 3044 3041 3034 3047 3049 3050 3052 3053 3056 3057 3055 3056 3057 3056 3053 3052 3051 3051 3053 3054 3056 3058 3062 3064 3066 3068 3070 3071 3073 3073 3074 3077 3079
2996 2995 3000 3002 3007 3015 3016 3021 3025 3026 3028 3032 3025 3028 3036 3042 3042 3043 3045 3048 3047 3048 3046 3048 3049 3046 3044 3043 3044 3046 3047 3050 3052 3054 3057 3060 3061 3063 3064 3065 3066 3067 3067 3068
2986 2987 2995 2994 2997 3001 3002 3006 3015 3018 3020 3018 3021 3023 3020 3033 3036 3038 3038 3039 3037 3038 3038 3037 3038 3039 3036 3037 3037 3039 3042 3044 3045 3046 3048 3051 3053 3054 3056 3056 3057 3056 3056 3056
2975 2978 2986 2984 2987 2989 2989 2994 2998 3003 3009 3012 3012 3006 3016 3020 3024 3028 3027 3028 3026 3028 3029 3027 3027 3027 3028 3030 3030 3033 3035 3037 3038 3039 3041 3043 3044 3045 3045 3045 3045 3046 3046 3046
2963 2966 2976 2977 2980 2977 2974 2984 2988 2994 2997 3000 3003 3004 3009 3011 3014 3019 3019 3021 3018 3019 3017 3016 3013 3014 3019 3020 3021 3023 3025 3027 3030 3032 3032 3033 3034 3035 3035 3037 3036 3036 3036 3036
2949 2956 2962 2963 2961 2963 2966 2971 2975 2973 2975 2989 2995 2996 2997 3002 3007 3003 3005 3007 3010 3007 3005 3003 3003 3004 3007 3009 3011 3013 3016 3018 3020 3021 3023 3024 3024 3024 3025 3024 3026 3026 3026 3026
2933 2944 2950 2953 2953 2952 2952 2959 2965 2971 2969 2976 2983 2984 2989 2995 2993 2986 2999 2997 2994 2994 2993 2992 2995 2995 2995 2998 3000 3004 3007 3008 3009 3009 3010 3012 3012 3012 3013 3014 3016 3014 3015 3015
2917 2929 2932 2937 2941 2942 2947 2954 2960 2957 2963 2968 2970 2974 2979 2981 2981 2980 2984 2981 2981 2980 2981 2982 2983 2985 2985 2989 2990 2993 2996 2997 2997 2996 2997 2999 3000 3001 3000 3001 3003 3005 3007 3006
2904 2915 2922 2930 2935 2936 2937 2945 2946 2951 2956 2959 2962 2964 2966 2969 2969 2967 2969 2969 2969 2970 2970 2971 2971 2973 2978 2979 2982 2984 2987 2989 2990 2990 2991 2992 2992 2992 2993 2994 2995 2996 2996 2996
2901 2902 2907 2914 2913 2923 2931 2938 2942 2944 2946 2950 2952 2954 2956 2958 2955 2959 2960 2959 2959 2960 2960 2961 2961 2964 2968 2971 2973 2975 2977 2979 2981 2982 2982 2983 2984 2985 2986 2987 2986 2986 2986 2984
2891 2897 2906 2914 2915 2916 2924 2929 2930 2933 2936 2941 2944 2943 2945 2944 2946 2949 2949 2949 2950 2951 2952 2953 2954 2957 2960 2963 2965 2967 2969 2971 2972 2974 2976 2976 2978 2978 2978 2977 2976 2975 2974 2972
2885 2892 2895 2901 2908 2911 2914 2917 2923 2923 2927 2930 2932 2934 2934 2934 2938 2939 2940 2941 2942 2943 2944 2945 2948 2951 2954 2956 2958 2960 2961 2963 2965 2967 2969 2969 2969 2969 2969 2967 2966 2964 2962 2960
2880 2882 2889 2891 2900 2903 2908 2909 2912 2913 2916 2921 2923 2924 2927 2928 2930 2932 2932 2934 2935 2937 2938 2940 2943 2947 2949 2950 2952 2952 2954 2957 2958 2959 2960 2960 2960 2959 2958 2957 2955 2953 2952 2949
Wind_Speed
26 25 33 31 28 27 26 19 20 19 13 16 23 26 25 24 27 26 26 25 25 25 23 22 24 24 27 27 30 36 39 45 39 40 39 37 39 35 32 30 29 31 28 25
29 40 32 25 25 26 29 27 27 22 22 22 23 29 29 26 29 28 28 28 26 25 23 23 24 27 23 25 31 37 42 43 45 39 40 42 42 38 33 33 30 30 30 29
38 30 33 30 29 28 29 30 27 24 20 19 25 35 32 31 31 29 25 23 22 24 24 22 22 27 23 24 26 30 29 30 35 35 39 45 44 43 36 34 32 28 32 32
41 36 22 28 36 31 32 26 25 25 24 27 16 25 25 16 19 20 20 21 22 19 20 20 21 26 26 25 25 25 23 26 30 29 39 42 41 41 36 34 32 31 32 33
54 40 41 38 36 30 34 23 24 24 25 26 30 22 34 21 23 20 16 10 13 17 17 16 21 28 26 25 24 25 23 25 27 27 31 35 38 40 38 36 34 33 33 35
42 39 32 46 36 30 22 24 19 21 23 26 30 28 34 28 25 22 18 16 14 14 16 18 26 24 28 24 27 27 25 24 23 23 28 34 37 40 38 37 37 35 32 33
41 46 35 28 35 36 29 23 17 15 18 21 21 24 36 14 20 17 17 14 12 15 18 23 26 25 25 26 26 27 24 23 20 21 28 35 37 37 37 37 36 33 31 32
43 35 51 38 39 39 40 36 23 20 15 22 30 37 34 23 22 21 22 19 19 22 24 23 25 27 25 26 23 27 26 25 26 26 27 31 33 34 33 33 33 33 32 32
45 48 32 46 32 35 39 45 51 32 32 20 23 25 26 22 23 25 23 24 23 24 25 23 25 26 23 26 23 28 27 27 26 26 26 28 30 31 31 31 30 31 31 32
48 38 45 36 34 41 42 37 32 33 16 22 25 32 32 19 22 19 17 16 22 26 21 23 23 22 28 27 25 26 28 28 29 29 29 30 31 31 30 29 28 29 29 30
53 43 34 42 46 42 40 39 42 35 35 15 18 25 28 23 18 21 19 19 21 19 23 21 20 25 29 24 28 26 31 31 31 31 31 29 27 26 25 26 27 28 27 27
66 43 39 47 46 38 41 43 43 33 44 35 37 38 17 14 9 15 13 16 18 18 22 20 22 27 28 29 30 28 30 32 31 31 31 30 29 28 28 28 28 28 27 28
62 52 30 32 34 38 49 53 49 45 39 32 23 37 22 29 24 19 18 17 17 22 20 20 29 29 29 33 31 30 31 33 34 35 34 32 29 27 27 27 27 28 29 30
61 46 54 36 51 50 44 48 46 47 43 41 43 48 36 17 19 19 24 21 19 21 26 22 22 31 28 33 32 31 34 36 39 38 36 33 31 30 30 30 29 29 28 29
51 58 49 53 53 48 45 47 49 50 52 46 55 52 43 37 31 28 22 23 24 22 25 30 26 28 31 32 34 35 37 39 42 41 38 35 33 31 30 30 29 30 31 31
53 55 55 47 57 54 55 49 45 50 52 56 52 50 52 41 38 34 29 29 31 28 27 30 37 32 31 32 33 35 38 42 44 44 42 39 37 36 35 35 36 38 40 38
54 57 43 49 54 57 51 50 48 49 50 52 56 60 45 40 36 32 33 36 36 29 29 36 39 36 34 32 34 38 42 46 47 47 44 42 41 40 40 40 37 35 35 34
56 59 47 31 43 27 41 52 49 41 43 50 49 46 46 42 38 35 35 32 34 32 39 36 42 40 33 34 38 42 47 50 50 49 47 44 42 40 39 37 36 34 32 37
58 61 36 28 28 17 32 40 54 55 53 41 41 43 43 38 33 38 42 42 39 41 36 42 46 40 38 38 42 45 49 49 50 46 43 44 44 43 41 39 42 42 47 38
54 61 45 37 23 16 30 35 47 43 48 42 44 45 38 34 38 51 43 47 38 42 45 51 45 40 41 39 41 42 51 52 49 46 48 50 46 47 53 47 47 34 33 34
47 53 52 43 21 27 31 35 29 37 29 45 39 37 40 43 44 48 36 39 35 42 42 41 41 38 38 36 38 42 48 50 47 49 39 32 32 37 38 34 29 28 31 33
36 37 37 46 34 23 39 37 43 35 32 28 26 24 32 31 32 35 34 32 35 37 35 32 35 32 36 37 39 43 47 48 48 49 45 43 37 35 32 29 27 30 33 34
37 47 42 40 48 36 35 40 29 35 36 25 25 28 36 29 37 37 42 40 36 33 33 32 31 32 36 40 44 46 47 45 39 37 38 32 25 24 26 29 30 32 34 36
34 34 37 32 34 41 39 31 24 25 24 27 29 27 31 40 39 33 34 35 32 30 29 30 28 32 39 44 48 48 44 42 40 30 27 26 25 26 28 30 32 34 37 39
26 29 25 40 26 23 30 28 27 25 27 27 27 25 24 31 28 25 26 26 26 26 27 27 27 35 42 46 48 46 41 27 24 23 23 24 26 28 30 32 35 38 40 41
36 34 30 40 36 29 34 23 30 22 23 24 27 29 30 32 29 29 32 30 27 25 25 25 29 40 43 42 40 33 23 19 20 22 24 26 28 31 34 37 40 41 41 40
Wind_Direction
224 219 220 222 225 230 239 255 254 236 234 236 254 258 254 256 262 262 262 264 257 254 252 253 257 249 252 258 263 267 267 271 264 251 242 241 236 233 233 240 240 243 242 246
216 226 223 228 226 232 236 246 243 245 248 261 266 267 266 261 259 257 262 266 261 256 254 251 247 250 253 268 270 271 273 270 268 257 243 241 236 231 231 237 240 242 241 242
219 228 231 222 228 229 234 238 243 249 255 262 272 277 274 269 261 253 264 266 258 251 252 248 239 244 258 271 283 281 272 267 264 252 237 237 234 229 230 236 240 242 242 241
227 223 226 222 225 228 237 238 249 253 259 261 262 278 269 255 251 262 271 255 249 245 246 239 236 250 266 273 282 282 275 268 267 252 244 235 234 230 233 236 240 242 244 241
227 227 227 228 225 225 239 241 246 254 259 265 256 259 272 264 251 251 239 225 227 240 240 238 248 256 264 272 284 283 275 272 268 255 244 221 225 224 231 235 239 239 241 239
232 228 227 231 229 224 232 239 242 244 255 257 249 247 264 256 258 249 243 230 234 238 234 238 244 260 273 273 282 272 274 270 260 247 218 221 220 226 233 237 237 239 243 240
225 221 226 223 223 225 219 214 218 232 230 249 248 239 241 254 231 237 218 208 253 238 251 262 271 256 273 283 276 266 269 254 238 233 222 223 227 233 236 234 236 239 240 239
216 220 217 222 221 216 217 209 216 222 236 254 244 244 250 253 248 238 231 241 212 250 257 257 267 278 282 287 275 260 262 250 242 237 230 229 231 233 233 234 236 236 235 241
214 227 222 220 221 211 213 216 225 247 265 279 261 248 244 247 247 252 248 241 233 242 237 254 260 272 288 289 277 261 260 249 238 234 230 230 233 235 235 235 235 237 243 247
219 226 219 216 219 222 217 228 220 228 248 243 245 244 253 254 231 233 230 229 226 234 243 249 253 272 284 279 275 263 251 243 240 237 236 234 235 236 235 235 234 238 240 244
215 221 219 213 210 212 212 222 218 223 230 240 257 254 252 259 258 230 236 227 224 223 239 241 266 280 283 274 275 263 251 244 243 242 238 233 226 223 226 231 235 238 238 238
212 218 227 217 223 217 218 215 213 214 225 233 252 258 253 264 245 233 223 210 209 220 231 254 273 277 273 271 275 264 249 244 238 229 222 218 220 226 230 231 232 233 234 238
210 212 212 210 213 212 215 219 220 221 230 232 237 255 261 256 242 232 221 221 213 233 243 262 292 281 269 270 269 264 246 237 228 221 221 224 228 228 229 231 235 239 242 245
212 212 211 209 206 204 211 218 216 217 220 229 236 250 242 231 216 222 229 231 226 237 260 282 276 285 274 267 268 258 241 231 223 222 224 229 231 233 236 237 238 241 246 251
214 214 216 221 220 218 217 217 218 220 221 222 234 237 243 242 249 241 240 248 242 251 253 286 288 280 271 264 266 254 238 230 225 225 229 235 238 243 245 249 250 252 252 250
214 214 219 226 222 225 223 225 226 227 227 231 240 246 251 248 247 248 248 248 251 255 255 273 288 278 268 264 262 261 243 230 227 230 235 239 244 248 251 251 251 255 254 255
211 210 214 229 228 232 242 228 229 228 229 230 235 239 245 245 246 247 251 261 266 259 254 269 280 275 267 261 260 255 243 236 235 239 241 243 245 246 246 245 247 251 255 260
208 206 210 222 229 231 237 222 223 230 232 231 237 243 247 249 251 250 249 256 266 260 264 257 265 274 267 256 252 250 244 241 240 243 243 244 245 245 245 248 252 256 265 273
207 204 206 213 210 217 224 219 219 218 226 228 235 242 245 247 250 252 251 255 271 267 265 259 272 271 264 257 251 250 244 241 240 239 245 248 248 247 246 250 256 264 274 280
204 205 204 210 223 214 218 232 232 231 236 232 234 237 242 246 252 250 262 277 264 248 250 261 270 268 263 255 254 253 245 241 238 233 238 241 241 246 257 263 272 279 276 276
195 201 207 216 214 228 223 224 220 205 217 229 227 235 243 248 260 271 265 254 255 258 258 259 259 257 252 252 252 246 239 235 229 233 236 248 262 266 270 278 272 271 276 281
195 195 209 219 223 232 221 227 227 226 221 228 231 234 233 252 255 247 248 256 260 260 258 258 252 242 244 244 242 237 237 238 244 251 255 264 270 272 267 272 276 277 279 280
200 206 204 214 220 228 237 232 241 238 235 237 244 249 259 249 245 261 258 264 260 255 252 246 239 235 234 234 232 231 233 240 252 271 284 284 276 275 277 279 282 283 284 286
201 208 215 222 223 228 236 242 233 234 242 240 244 250 248 256 259 251 252 252 252 252 246 241 236 231 232 232 232 235 242 256 264 276 271 271 274 278 280 281 281 283 284 284
203 202 211 222 226 217 223 233 240 236 245 228 232 252 248 250 244 245 247 249 247 244 239 235 231 232 231 233 236 243 258 260 258 264 269 272 276 279 281 282 283 284 284 285
216 217 216 227 236 235 240 244 235 231 234 241 249 250 255 247 249 247 250 247 242 242 240 236 234 229 232 240 251 251 248 253 260 268 276 281 282 283 284 284 284 285 286 285